STARLINK-33544, 62281

Orbit data source: Space-Track

STARLINK-33544, 62281 is a payload satellite owned by SpaceX/Seattle (US) in LEO that was launched on Sun, 08 Dec 2024 UTC via an FALCON 9 launch vehicle from the Air Force Eastern Test Range (AFETR). Payload-class satellites include a variety of spacecraft equipped with specific instruments for various scientific and technological missions. These include communications satellites like Starlink; space stations such as the ISS; scientific satellites like the Hubble; Earth observation satellites from companies like Planet Labs, Umbra, and HawkEye 360; GPS; miniature CubeSats for education and research; and military/defense satellites.

Loading next visibility...
Identifier
62281, 2024-237Q
Orbit
LEO
Country
Flag of USUS
Related business
Manufacturer
SpaceX/Seattle
Mission
Operational Commercial Communications
Bus & Motor
STARLINK V2MO, Unknown motor
Mass
530 kg wet, ~500 kg dry
Launch date (UTC)
2024-12-08 (10 months ago)
Launch vehicle
FALCON 9
Launch site
Air Force Eastern Test Range (AFETR)
Object type
Payload
Rocket body
Debris
Shape & HBR
Box + 2 Pan, 17.7 m
Radar Cross Section
36.964 m², Large (>1 m²)

Expand to show TLE details & history
Last TLE update: 11 hours ago

TLE from 11 hours ago
0 STARLINK-33544
1 62281U 24237Q   25286.53373903  .00033987  00000-0  12372-2 0  9990
2 62281  43.0027 327.6578 0001990 273.9556  86.1068 15.27625015 48680
Epoch: 2025-10-13T12:48Z
TLE epoch observation values (Epoch: 2025-10-13T12:48:35.052Z)
Latitude
-0.00002°
Longitude
113.17658°
Altitude
482.598 km
Speed
7.626 km/s
True Right ascension
21h 50m 37s
True Declination
0° 00' 00"
Sunlit
Object was in full shadow at epoch
Visualization orbit readout
Latitude
Unknown
Longitude
Unknown
Altitude
Unknown
Speed
Unknown
Apparent Right ascension
Unknown
Apparent Declination
Unknown
Sunlit
N/A
Visualization observer readout
Local Sidereal Time
18:37:52
Azimuth
Unknown
Elevation
Unknown
Doppler factor
Unknown
Orbital elements
Apogee altitude
486.225 km
Perigee altitude
483.493 km
Semi-major axis
6,862.996 km
Eccentricity
0.0002
Inclination
43.0027°
RAAN
327.6578°
Arg. of periapsis
273.9556°
True anomaly
86.12955°
Mean anomaly
86.1068°
Eccentric anomaly
86.11818°
Mean motion
3.81744 °/min
Orbital period
94.3 mins
BSTAR
0.0012372
Loading maneuver chart data...
Computing Atmospheric mass density...
Loading historical data...
Loading historical data...
Loading historical data...
Loading historical data...
Loading historical data...
Loading historical data...
Loading historical data...

Documentation

Showing up to 5 results
|